Terug naar catalogus

COSMOS 2251 DEB

ActiefVLEO
NORAD 36047·DEBRIS·🇷🇺 Russia

Gelanceerd Jun 16, 1993 vanaf Plesetsk Cosmodrome

Loading…

Volgende Passages (komende 24 uur)

TLE

VerouderendSource: Space-Track

Epoch: Sep 13, 2026, 08:45 UTC

1 36047U 93036AXJ 26256.36504396  .00023832  00000-0  13092-2 0  9993
2 36047  74.0193 131.0305 0009020 130.4571 229.7411 15.13997755700725

Volg COSMOS 2251 DEB in realtime met AllMySat

Download on the App Store